Voltar ao catálogo

ARIANE 2 R/B

AtivoHEO
NORAD 19622·ROCKET BODY·🇫🇷 France

Lançado Oct 28, 1988 de Guiana Space Centre

Loading…

Próximas Passagens (próximas 24 horas)

TLE

AtualizadoSource: Space-Track

Época: Sep 14, 2026, 18:05 UTC

1 19622U 88098B   26257.75347549  .00000945  00000-0  52155-3 0  9998
2 19622   3.8132  98.3553 5877842 357.1454   0.6488  4.16027304429910

Acompanhe ARIANE 2 R/B em tempo real com AllMySat

Download on the App Store